This is the latest recevied weather packets stored in our database for station/object W0CHP-13. If no packets are shown the sender has not sent any weather packets the latest 10 day(s).
| Time | Temp. | Humidity | Pressure | Rain* | Wind** | Luminosity | Snow |
|---|---|---|---|---|---|---|---|
| 1777688236 | 9.44° C | 35% | 1017 hPa | 0 mm | - | 0 W/m² | - |
| 1777687638 | 9.44° C | 34% | 1017 hPa | 0 mm | - | 0 W/m² | - |
| 1777687036 | 10° C | 34% | 1016.8 hPa | 0 mm | - | 0 W/m² | - |
| 1777686438 | 10° C | 33% | 1016.7 hPa | 0 mm | - | 0 W/m² | - |
| 1777685837 | 10° C | 33% | 1016.8 hPa | 0 mm | - | 0 W/m² | - |
| 1777685235 | 10° C | 32% | 1016.5 hPa | 0 mm | - | 0 W/m² | - |
| 1777684637 | 10.56° C | 32% | 1016.6 hPa | 0 mm | - | 1 W/m² | - |
| 1777684035 | 10.56° C | 32% | 1016.5 hPa | 0 mm | - | 3 W/m² | - |
| 1777683438 | 10.56° C | 30% | 1016.3 hPa | 0 mm | - | 7 W/m² | - |
| 1777682836 | 10.56° C | 28% | 1016.5 hPa | 0 mm | - | 11 W/m² | - |
| 1777682238 | 11.11° C | 29% | 1016.3 hPa | 0 mm | - | 16 W/m² | - |
| 1777681636 | 11.11° C | 30% | 1016.1 hPa | 0 mm | - | 17 W/m² | - |
| 1777681038 | 11.67° C | 30% | 1016.1 hPa | 0 mm | - | 23 W/m² | - |
| 1777680436 | 11.67° C | 29% | 1016.1 hPa | 0 mm | - | 36 W/m² | - |
| 1777679835 | 11.67° C | 29% | 1015.9 hPa | 0 mm | - | 67 W/m² | - |
| 1777679237 | 11.67° C | 27% | 1015.8 hPa | 0 mm | - | 97 W/m² | - |
| 1777678635 | 11.67° C | 27% | 1016 hPa | 0 mm | - | 65 W/m² | - |
| 1777678037 | 11.67° C | 29% | 1015.8 hPa | 0 mm | - | 70 W/m² | - |
| 1777677435 | 11.67° C | 28% | 1016 hPa | 0 mm | - | 202 W/m² | - |
| 1777676838 | 11.67° C | 28% | 1016.1 hPa | 0 mm | - | 92 W/m² | - |
| 1777676236 | 12.22° C | 27% | 1015.8 hPa | 0 mm | - | 75 W/m² | - |
| 1777675638 | 12.22° C | 27% | 1015.8 hPa | 0 mm | - | 279 W/m² | - |
| 1777675037 | 12.22° C | 26% | 1015.8 hPa | 0 mm | - | 140 W/m² | - |
| 1777674436 | 12.22° C | 26% | 1016 hPa | 0 mm | - | 145 W/m² | - |
| 1777673837 | 12.78° C | 24% | 1015.8 hPa | 0 mm | - | 378 W/m² | - |
* Rain latest hour (hover to see other rain measurements)
** Current wind speed in m/s (hover to see current wind gust speed)